Other Public Products
Issued by NWS Charleston, SC

Current Version | Previous Version | Graphics & Text | Print | Product List | Glossary On
Versions: 1 2 3 4 5 6 7 8 9 10 11 12 13 14 15 16 17 18 19 20 21 22 23 24 25 26 27 28 29 30 31 32 33 34 35 36 37 38 39 40 41 42 43 44 45 46 47 48 49 50
000 FPUS82 KCHS 190912 OPUCHS TEST...KCHS/KSAV Gateway Observations...TEST National Weather Service Charleston SC 400 AM EST SUN NOV 19 2017 NOTE: "fair" indicates few or no clouds below 12,000 feet with no significant weather and/or obstructions to visibility. SCZ050-WAZ558-NCZ071-TXZ119-213-PAZ071-DCZ001-FLZ074-172-MI076- NYZ176-178-MAZ016-IL014-TNZ027-NJZ106-GAZ044-MD014-191000- ...Gateway Observations for Charleston International... CITY SKY/WX TMP DP RH WIND PRES REMARKS Chas Airport MOCLDY 66 58 75 SW16G23 29.72S Seattle CLOUDY 41 35 79 SE6 30.09F Charlotte MOCLDY 57 46 66 NW15G29 29.68R Dallas DFW CLEAR 43 35 73 NW7 30.29S Dallas Love CLEAR 44 35 70 NW5 30.31S Philladelphia LGT RAIN 59 55 87 S18G24 29.29F Wash National CLOUDY 61 55 81 SW18G26 29.33R Baltimore CLOUDY 60 56 86 SW14G24 29.31R Miami CLEAR 70 64 81 NW3 29.94S Detroit CLOUDY 38 28 67 NW12G23 29.68R WCI 30 Newark RAIN 58 55 90 SW22G29 29.28F Laguardia LGT RAIN 59 54 83 SW17G28 29.27F J F K LGT RAIN 57 56 96 SW22 29.31F Boston Logan CLOUDY 56 54 93 S12 29.30F Ft. Lauderdale CLEAR 68 66 93 NW5 29.93F Chicago O`Hare CLOUDY 34 23 64 NW16 29.90R WCI 24 Chicago Midway CLOUDY 35 24 64 NW16 29.91R WCI 25 Houston Bush CLEAR 52 35 52 N15 30.23S Houston Hobby PTCLDY 53 33 46 N24 30.22R Nashville CLOUDY 44 31 60 NW13 30.04R Atlanta CLOUDY 48 40 73 NW21G37 29.89R $$ GAZ044-118-TXZ119-213-NCZ071-DCZ001-MDZ014-506-PAZ021-071-NJZ106- NYZ176-178-MAZ106-OHZ011-021-055-MIZ076-KYZ091-ILZ014-INZ047- MNZ060-ONZ431-191000- ...Gateway Observations for Savannah International... CITY SKY/WX TMP DP RH WIND PRES REMARKS Savannah Arpt MOCLDY 65 60 84 SW15 29.76F Atlanta CLOUDY 48 40 73 NW21G37 29.89R Charlotte MOCLDY 57 46 66 NW15G29 29.68R Dallas DFW CLEAR 43 35 73 NW7 30.29S Houston Bush CLEAR 52 35 52 N15 30.23S Wash National CLOUDY 61 55 81 SW18G26 29.33R Wash Dulles LGT RAIN 59 55 87 SW16G23 29.36R Baltimore CLOUDY 60 56 86 SW14G24 29.31R Philadelphia LGT RAIN 59 55 87 S18G24 29.29F Newark RAIN 58 55 90 SW22G29 29.28F Laguardia LGT RAIN 59 54 83 SW17G28 29.27F J F K LGT RAIN 57 56 96 SW22 29.31F Boston CLOUDY 56 54 93 S12 29.30F Pittsburg LGT RAIN 37 35 92 W18G28 29.56R WCI 27 Akron CLOUDY 39 33 79 NW17 29.62R WCI 30 Cleveland CLOUDY 41 31 67 W17G28 29.67R Cincinnati CLOUDY 39 33 79 W18G26 29.87R WCI 30 Columbus CLOUDY 40 36 86 W16 29.77R WCI 32 Detroit CLOUDY 38 28 67 NW12G23 29.68R WCI 30 Chicago O`Hare CLOUDY 34 23 64 NW16 29.90R WCI 24 Minneapolis CLEAR 19 11 70 W7 30.09R WCI 10 Indianapolis CLOUDY 38 31 76 W12 29.91R WCI 30 Toronto Canada CLOUDY 36 32 87 NW24G31 29.36R WCI 24 $$

USA.gov is the U.S. government's official web portal to all federal, state and local government web resources and services.